Change the Weather History Date:

Friday, January 11, 2013

  Actual Average Record
Temperature  
Mean Temperature 40 °F -  
Max Temperature 44 °F 17 °F 46 °F (1990)
Min Temperature 35 °F -2 °F -30 °F (1977)
Degree Days  
Heating Degree Days 26    
Moisture  
Dew Point 35 °F    
Average Humidity 87    
Maximum Humidity 93    
Minimum Humidity 81    
Precipitation  
Precipitation 0.00 in - - ()
Sea Level Pressure  
Sea Level Pressure 29.53 in    
Wind  
Wind Speed 10 mph (SSE)    
Max Wind Speed 17 mph    
Max Gust Speed 22 mph    
Visibility 3 miles    
Events Fog    
Averages and records for this station are not official NWS values.
T = Trace of Precipitation, MM = Missing Value Source: NWS Daily Summary

Daily Weather History Graph

Daily Weather History Graph

Search for Another Location

Airport or City:

Trip Planner

Search our weather history database for the weather conditions in past years. The results will help you decide how hot, cold, wet, or windy it might be!

Date:

Astronomy

Jan. 11, 2013 Rise Set
Actual Time 7:47 AM CST 4:57 PM CST
Civil Twilight 7:15 AM CST 5:29 PM CST
Nautical Twilight 6:39 AM CST 6:05 PM CST
Astronomical Twilight 6:04 AM CST 6:40 PM CST
Moon 7:19 AM CST (1/11) 5:18 PM CST (1/11)
Length of Visible Light 10h 14m
Length of Day
9h 09m
Waning Crescent, 0% of the Moon is Illuminated
Jan 11
Waning Crescent
Jan 11
New
Jan 18
First Quarter
Jan 26
Full
Feb 3
Last Quarter

Hourly Weather History & Observations

Time (CST) Temp. Windchill Dew Point Humidity Pressure Visibility Wind Dir Wind Speed Gust Speed Precip Events Conditions
12:14 AM 35.6 °F 28.0 °F 32.0 °F 87% 29.73 in 2.0 mi SSE 10.4 mph - N/A   Overcast
12:34 AM 35.6 °F 28.0 °F 32.0 °F 87% 29.71 in 1.8 mi SE 10.4 mph - N/A   Overcast
12:54 AM 35.6 °F 28.6 °F 32.0 °F 87% 29.69 in 1.8 mi SE 9.2 mph - N/A   Overcast
1:14 AM 35.6 °F 28.6 °F 32.0 °F 87% 29.69 in 2.0 mi SSE 9.2 mph - N/A   Overcast
1:34 AM 35.6 °F 28.6 °F 32.0 °F 87% 29.68 in 4.0 mi SSE 9.2 mph - N/A   Overcast
1:55 AM 35.6 °F 29.9 °F 32.0 °F 87% 29.68 in 5.0 mi SSE 6.9 mph - N/A   Overcast
2:14 AM 35.6 °F 29.2 °F 32.0 °F 87% 29.68 in 4.0 mi SE 8.1 mph - N/A   Overcast
2:34 AM 35.6 °F 28.0 °F 32.0 °F 87% 29.68 in 5.0 mi SE 10.4 mph - N/A   Overcast
2:54 AM 35.6 °F 28.0 °F 32.0 °F 87% 29.67 in 4.0 mi SE 10.4 mph - N/A   Overcast
3:14 AM 35.6 °F 28.0 °F 32.0 °F 87% 29.65 in 1.8 mi SE 10.4 mph - N/A   Overcast
3:34 AM 35.6 °F 28.6 °F 32.0 °F 87% 29.65 in 2.5 mi SSE 9.2 mph - N/A   Overcast
3:54 AM 35.6 °F 28.0 °F 32.0 °F 87% 29.64 in 1.5 mi SSE 10.4 mph - N/A   Overcast
4:14 AM 35.6 °F 28.0 °F 32.0 °F 87% 29.63 in 1.2 mi SSE 10.4 mph - N/A   Overcast
4:34 AM 35.6 °F 28.6 °F 32.0 °F 87% 29.62 in 1.5 mi SE 9.2 mph - N/A   Overcast
4:55 AM 35.6 °F 29.9 °F 32.0 °F 87% 29.61 in 1.5 mi SSE 6.9 mph - N/A   Overcast
5:14 AM 35.6 °F 29.2 °F 33.8 °F 93% 29.60 in 1.8 mi SSE 8.1 mph - N/A   Overcast
5:34 AM 35.6 °F 29.9 °F 33.8 °F 93% 29.61 in 1.5 mi SSE 6.9 mph - N/A   Overcast
6:14 AM 35.6 °F 29.9 °F 33.8 °F 93% 29.59 in 1.8 mi SE 6.9 mph - N/A   Overcast
6:34 AM 35.6 °F 31.7 °F 33.8 °F 93% 29.59 in 2.0 mi SSE 4.6 mph - N/A   Overcast
6:54 AM 35.6 °F 30.7 °F 33.8 °F 93% 29.59 in 3.0 mi SE 5.8 mph - N/A   Overcast
7:14 AM 35.6 °F 31.7 °F 33.8 °F 93% 29.58 in 3.0 mi SSE 4.6 mph - N/A   Overcast
7:34 AM 35.6 °F 30.7 °F 33.8 °F 93% 29.59 in 3.0 mi South 5.8 mph - N/A   Overcast
7:54 AM 39.2 °F 33.0 °F 35.6 °F 87% 29.59 in 3.0 mi South 9.2 mph - N/A   Overcast
8:14 AM 39.2 °F 32.0 °F 35.6 °F 87% 29.58 in 3.0 mi SSE 11.5 mph - N/A   Overcast
8:34 AM 39.2 °F 34.2 °F 35.6 °F 87% 29.58 in 3.0 mi South 6.9 mph - N/A   Overcast
8:54 AM 39.2 °F 33.0 °F 35.6 °F 87% 29.58 in 3.0 mi South 9.2 mph - N/A   Overcast
9:14 AM 39.2 °F 32.5 °F 35.6 °F 87% 29.58 in 4.0 mi SSE 10.4 mph - N/A   Overcast
9:34 AM 39.2 °F 33.6 °F 35.6 °F 87% 29.56 in 4.0 mi SSE 8.1 mph - N/A   Overcast
9:55 AM 39.2 °F 32.0 °F 35.6 °F 87% 29.56 in 5.0 mi South 11.5 mph - N/A   Overcast
10:14 AM 39.2 °F 30.8 °F 35.6 °F 87% 29.56 in 7.0 mi South 15.0 mph - N/A   Overcast
10:34 AM 39.2 °F 32.0 °F 35.6 °F 87% 29.56 in 7.0 mi South 11.5 mph 17.3 mph N/A   Overcast
10:54 AM 39.2 °F 30.5 °F 35.6 °F 87% 29.56 in 7.0 mi South 16.1 mph - N/A   Overcast
11:14 AM 39.2 °F 31.2 °F 35.6 °F 87% 29.56 in 5.0 mi South 13.8 mph - N/A   Overcast
11:34 AM 39.2 °F 30.2 °F 35.6 °F 87% 29.54 in 2.5 mi South 17.3 mph - N/A   Overcast
11:54 AM 39.2 °F 32.0 °F 35.6 °F 87% 29.53 in 0.8 mi South 11.5 mph - N/A   Overcast
12:14 PM 39.2 °F 31.6 °F 35.6 °F 87% 29.49 in 0.8 mi SSE 12.7 mph - N/A   Overcast
12:35 PM 39.2 °F 32.0 °F 35.6 °F 87% 29.50 in 0.8 mi South 11.5 mph - N/A   Overcast
12:54 PM 39.2 °F 32.5 °F 35.6 °F 87% 29.49 in 1.0 mi SSE 10.4 mph - N/A   Overcast
1:15 PM 39.2 °F 33.6 °F 35.6 °F 87% 29.48 in 0.8 mi SSE 8.1 mph - N/A   Overcast
1:34 PM 39.2 °F 32.5 °F 35.6 °F 87% 29.47 in 1.0 mi SE 10.4 mph - N/A   Overcast
2:14 PM 39.2 °F 33.6 °F 35.6 °F 87% 29.46 in 0.5 mi SE 8.1 mph - N/A Fog Fog
2:35 PM 39.2 °F 33.6 °F 35.6 °F 87% 29.47 in 0.5 mi SE 8.1 mph - N/A Fog Fog
2:55 PM 39.2 °F 32.0 °F 35.6 °F 87% 29.47 in 0.5 mi SE 11.5 mph - N/A Fog Fog
3:14 PM 39.2 °F 32.5 °F 35.6 °F 87% 29.46 in 0.8 mi SE 10.4 mph - N/A   Overcast
3:34 PM 39.2 °F 32.0 °F 35.6 °F 87% 29.46 in 0.8 mi SE 11.5 mph - N/A   Overcast
3:55 PM 39.2 °F 33.0 °F 35.6 °F 87% 29.45 in 0.8 mi SE 9.2 mph - N/A   Overcast
4:14 PM 39.2 °F 32.5 °F 35.6 °F 87% 29.44 in 0.5 mi SE 10.4 mph - N/A Fog Fog
4:34 PM 41.0 °F 34.3 °F 35.6 °F 81% 29.44 in 0.5 mi SE 11.5 mph - N/A Fog Fog
4:54 PM 41.0 °F 33.5 °F 35.6 °F 81% 29.44 in 0.5 mi SE 13.8 mph - N/A Fog Fog
5:14 PM 41.0 °F 33.9 °F 35.6 °F 81% 29.44 in 1.0 mi SE 12.7 mph - N/A   Overcast
5:34 PM 41.0 °F 34.7 °F 35.6 °F 81% 29.44 in 1.2 mi SSE 10.4 mph - N/A   Overcast
5:55 PM 41.0 °F 34.3 °F 37.4 °F 87% 29.43 in 2.5 mi SE 11.5 mph - N/A   Overcast
6:14 PM 41.0 °F 34.3 °F 37.4 °F 87% 29.43 in 4.0 mi SSE 11.5 mph 17.3 mph N/A   Overcast
6:34 PM 44.6 °F 38.1 °F 41.0 °F 87% 29.41 in 4.0 mi SSE 13.8 mph 18.4 mph N/A   Overcast
6:54 PM 44.6 °F 37.2 °F 41.0 °F 87% 29.43 in 4.0 mi SSE 17.3 mph 21.9 mph N/A   Overcast
7:15 PM 44.6 °F 37.4 °F 41.0 °F 87% 29.43 in 3.0 mi SSE 16.1 mph - N/A   Overcast
7:34 PM 44.6 °F 38.4 °F 41.0 °F 87% 29.43 in 4.0 mi SSE 12.7 mph - N/A   Overcast
7:54 PM 41.0 °F 35.2 °F 37.4 °F 87% 29.41 in 2.5 mi SE 9.2 mph - N/A   Overcast
8:14 PM 41.0 °F 35.2 °F 37.4 °F 87% 29.41 in 1.2 mi SE 9.2 mph - N/A   Overcast
8:35 PM 41.0 °F 34.7 °F 37.4 °F 87% 29.40 in 2.0 mi SSE 10.4 mph - N/A   Overcast
8:54 PM 42.8 °F 36.2 °F 37.4 °F 81% 29.41 in 5.0 mi South 12.7 mph 18.4 mph N/A   Overcast
9:14 PM 44.6 °F 37.4 °F 41.0 °F 87% 29.41 in 7.0 mi South 16.1 mph - N/A   Overcast
9:35 PM 41.0 °F 33.5 °F 37.4 °F 87% 29.42 in 5.0 mi South 13.8 mph - N/A   Overcast
9:54 PM 41.0 °F 34.7 °F 37.4 °F 87% 29.42 in 5.0 mi SSW 10.4 mph - N/A   Overcast
10:14 PM 41.0 °F 33.9 °F 37.4 °F 87% 29.42 in 5.0 mi SSW 12.7 mph - N/A   Overcast
10:35 PM 41.0 °F 34.3 °F 37.4 °F 87% 29.43 in 4.0 mi SSW 11.5 mph - N/A   Overcast
10:54 PM 41.0 °F 33.9 °F 37.4 °F 87% 29.43 in 3.0 mi SW 12.7 mph - N/A   Overcast
11:14 PM 41.0 °F 33.9 °F 37.4 °F 87% 29.43 in 2.5 mi SW 12.7 mph - N/A   Overcast
11:34 PM 41.0 °F 34.7 °F 35.6 °F 81% 29.43 in 2.5 mi SSW 10.4 mph - N/A   Overcast
11:54 PM 39.2 °F 32.5 °F 35.6 °F 87% 29.43 in 2.5 mi SW 10.4 mph - N/A   Overcast